TimeCST,TemperatureF,Dew PointF,Humidity,Sea Level PressureIn,VisibilityMPH,Wind Direction,Wind SpeedMPH,Gust SpeedMPH,PrecipitationIn,Events,Conditions,WindDirDegrees,DateUTC
12:14 AM,-5.8,-13.0,71,30.64,10.0,NNW,11.5,17.3,N/A,,Clear,340,2013-01-24 06:14:00
12:34 AM,-5.8,-13.0,71,30.64,10.0,NNW,15.0,-,N/A,,Scattered Clouds,340,2013-01-24 06:34:00
12:53 AM,-5.8,-13.0,71,30.64,10.0,NNW,15.0,20.7,N/A,,Scattered Clouds,340,2013-01-24 06:53:00
1:14 AM,-5.8,-13.0,71,30.65,10.0,NNW,13.8,18.4,N/A,,Scattered Clouds,340,2013-01-24 07:14:00
1:33 AM,-7.6,-16.6,65,30.65,10.0,NW,8.1,16.1,N/A,,Scattered Clouds,310,2013-01-24 07:33:00
1:53 AM,-9.4,-18.4,65,30.66,10.0,NW,9.2,-,N/A,,Scattered Clouds,310,2013-01-24 07:53:00
2:13 AM,-5.8,-11.2,77,30.66,10.0,North,12.7,-,N/A,,Scattered Clouds,360,2013-01-24 08:13:00
2:33 AM,-5.8,-11.2,77,30.66,10.0,North,12.7,-,N/A,,Scattered Clouds,360,2013-01-24 08:33:00
2:54 AM,-5.8,-11.2,77,30.66,10.0,NNW,10.4,-,N/A,,Scattered Clouds,340,2013-01-24 08:54:00
3:13 AM,-5.8,-11.2,77,30.67,10.0,North,10.4,-,N/A,,Mostly Cloudy,350,2013-01-24 09:13:00
3:33 AM,-7.6,-11.2,84,30.66,10.0,NNW,9.2,-,N/A,,Overcast,340,2013-01-24 09:33:00
3:54 AM,-7.6,-13.0,77,30.67,10.0,NW,6.9,-,N/A,,Overcast,320,2013-01-24 09:54:00
4:13 AM,-5.8,-11.2,77,30.66,7.0,North,6.9,-,N/A,,Overcast,10,2013-01-24 10:13:00
4:33 AM,-5.8,-11.2,77,30.67,10.0,North,9.2,-,N/A,,Overcast,360,2013-01-24 10:33:00
4:54 AM,-7.6,-11.2,84,30.66,10.0,North,9.2,-,N/A,,Mostly Cloudy,350,2013-01-24 10:54:00
5:13 AM,-7.6,-14.8,71,30.66,10.0,WNW,8.1,-,N/A,,Overcast,300,2013-01-24 11:13:00
5:33 AM,-9.4,-18.4,65,30.67,10.0,WNW,11.5,-,N/A,,Overcast,290,2013-01-24 11:33:00
5:54 AM,-11.2,-20.2,64,30.68,10.0,SSW,6.9,-,N/A,,Mostly Cloudy,210,2013-01-24 11:54:00
6:13 AM,-13.0,-20.2,70,30.68,10.0,WSW,8.1,-,N/A,,Scattered Clouds,250,2013-01-24 12:13:00
6:33 AM,-14.8,-20.2,77,30.69,10.0,SW,6.9,-,N/A,,Clear,220,2013-01-24 12:33:00
6:54 AM,-14.8,-20.2,77,30.69,10.0,WSW,4.6,-,N/A,,Clear,240,2013-01-24 12:54:00
7:13 AM,-13.0,-20.2,70,30.69,10.0,WSW,4.6,-,N/A,,Scattered Clouds,240,2013-01-24 13:13:00
7:33 AM,-13.0,-20.2,70,30.69,10.0,SW,4.6,-,N/A,,Clear,220,2013-01-24 13:33:00
7:54 AM,-13.0,-20.2,70,30.69,10.0,SW,4.6,-,N/A,,Clear,220,2013-01-24 13:54:00
8:14 AM,-13.0,-20.2,70,30.67,10.0,SW,4.6,-,N/A,,Clear,230,2013-01-24 14:14:00
8:33 AM,-13.0,-20.2,70,30.67,10.0,SW,5.8,-,N/A,,Clear,220,2013-01-24 14:33:00
8:54 AM,-13.0,-20.2,70,30.66,10.0,SW,6.9,-,N/A,,Clear,230,2013-01-24 14:54:00
9:14 AM,-11.2,-20.2,64,30.67,10.0,SSW,5.8,-,N/A,,Clear,210,2013-01-24 15:14:00
9:33 AM,-11.2,-20.2,64,30.66,10.0,SSW,4.6,-,N/A,,Clear,210,2013-01-24 15:33:00
9:54 AM,-9.4,-20.2,59,30.65,10.0,SW,5.8,-,N/A,,Clear,230,2013-01-24 15:54:00
10:13 AM,-9.4,-18.4,65,30.65,10.0,SW,4.6,-,N/A,,Clear,220,2013-01-24 16:13:00
10:33 AM,-7.6,-18.4,59,30.65,10.0,SSW,4.6,-,N/A,,Clear,210,2013-01-24 16:33:00
10:54 AM,-7.6,-18.4,59,30.64,10.0,SW,3.5,-,N/A,,Clear,230,2013-01-24 16:54:00
11:13 AM,-5.8,-16.6,60,30.64,10.0,Calm,Calm,-,N/A,,Clear,0,2013-01-24 17:13:00
11:33 AM,-5.8,-14.8,65,30.64,10.0,Calm,Calm,-,N/A,,Clear,0,2013-01-24 17:33:00
11:54 AM,-4.0,-14.8,60,30.62,10.0,Calm,Calm,-,N/A,,Clear,0,2013-01-24 17:54:00
12:13 PM,-2.2,-13.0,60,30.60,10.0,Calm,Calm,-,N/A,,Clear,0,2013-01-24 18:13:00
12:33 PM,-2.2,-13.0,60,30.59,10.0,Calm,Calm,-,N/A,,Clear,0,2013-01-24 18:33:00
12:54 PM,-2.2,-11.2,66,30.57,10.0,Calm,Calm,-,N/A,,Clear,0,2013-01-24 18:54:00
1:13 PM,-2.2,-11.2,66,30.57,10.0,Calm,Calm,-,N/A,,Clear,0,2013-01-24 19:13:00
1:33 PM,-0.4,-11.2,60,30.56,10.0,Calm,Calm,-,N/A,,Clear,0,2013-01-24 19:33:00
1:54 PM,-0.4,-11.2,60,30.55,10.0,Calm,Calm,-,N/A,,Clear,0,2013-01-24 19:54:00
2:13 PM,-0.4,-11.2,60,30.54,10.0,Calm,Calm,-,N/A,,Clear,0,2013-01-24 20:13:00
2:33 PM,-0.4,-11.2,60,30.53,10.0,Calm,Calm,-,N/A,,Clear,0,2013-01-24 20:33:00
2:54 PM,1.4,-11.2,56,30.52,10.0,Calm,Calm,-,N/A,,Mostly Cloudy,0,2013-01-24 20:54:00
3:13 PM,1.4,-9.4,61,30.51,10.0,Calm,Calm,-,N/A,,Overcast,0,2013-01-24 21:13:00
3:34 PM,1.4,-9.4,61,30.49,10.0,Calm,Calm,-,N/A,,Mostly Cloudy,0,2013-01-24 21:34:00
3:53 PM,3.2,-9.4,56,30.47,10.0,Calm,Calm,-,N/A,,Mostly Cloudy,0,2013-01-24 21:53:00
4:13 PM,3.2,-9.4,56,30.46,10.0,Calm,Calm,-,N/A,,Scattered Clouds,0,2013-01-24 22:13:00
4:34 PM,3.2,-9.4,56,30.44,10.0,Calm,Calm,-,N/A,,Clear,0,2013-01-24 22:34:00
4:53 PM,3.2,-9.4,56,30.43,10.0,Calm,Calm,-,N/A,,Mostly Cloudy,0,2013-01-24 22:53:00
5:13 PM,3.2,-7.6,61,30.43,10.0,Calm,Calm,-,N/A,,Overcast,0,2013-01-24 23:13:00
5:34 PM,5.0,-7.6,56,30.42,7.0,Calm,Calm,-,N/A,Snow,Light Snow,0,2013-01-24 23:34:00
5:53 PM,5.0,-5.8,61,30.41,10.0,Calm,Calm,-,N/A,,Overcast,0,2013-01-24 23:53:00
6:13 PM,5.0,-5.8,61,30.39,10.0,SE,3.5,-,N/A,,Overcast,140,2013-01-25 00:13:00
6:34 PM,5.0,-2.2,72,30.39,4.0,SSE,3.5,-,N/A,Snow,Light Snow,160,2013-01-25 00:34:00
6:53 PM,5.0,-2.2,72,30.38,3.0,SE,4.6,-,N/A,Snow,Light Snow,130,2013-01-25 00:53:00
7:14 PM,6.8,-0.4,72,30.37,2.5,SSE,6.9,-,N/A,Snow,Light Snow,150,2013-01-25 01:14:00
7:34 PM,6.8,1.4,79,30.35,2.0,SE,5.8,-,N/A,Snow,Light Snow,140,2013-01-25 01:34:00
7:53 PM,6.8,1.4,79,30.34,1.8,SSE,5.8,-,N/A,Snow,Light Snow,150,2013-01-25 01:53:00
8:14 PM,6.8,1.4,79,30.33,1.8,SE,5.8,-,N/A,Snow,Light Snow,140,2013-01-25 02:14:00
8:34 PM,6.8,1.4,79,30.30,5.0,SE,8.1,-,N/A,Snow,Light Snow,140,2013-01-25 02:34:00
8:53 PM,6.8,1.4,79,30.29,10.0,SE,8.1,-,N/A,,Overcast,140,2013-01-25 02:53:00
9:14 PM,6.8,1.4,79,30.28,10.0,SE,9.2,-,N/A,,Overcast,130,2013-01-25 03:14:00
9:34 PM,6.8,1.4,79,30.27,10.0,SE,5.8,-,N/A,,Overcast,130,2013-01-25 03:34:00
9:53 PM,6.8,1.4,79,30.26,10.0,SE,3.5,-,N/A,,Overcast,140,2013-01-25 03:53:00
10:14 PM,6.8,1.4,79,30.24,10.0,Calm,Calm,-,N/A,,Overcast,0,2013-01-25 04:14:00
10:33 PM,6.8,1.4,79,30.23,10.0,SE,3.5,-,N/A,,Overcast,140,2013-01-25 04:33:00
10:53 PM,6.8,1.4,79,30.22,10.0,South,3.5,-,N/A,Snow,Light Snow,190,2013-01-25 04:53:00
11:14 PM,6.8,1.4,79,30.21,10.0,Calm,Calm,-,N/A,Snow,Light Snow,0,2013-01-25 05:14:00
11:33 PM,8.6,1.4,73,30.19,10.0,South,3.5,-,N/A,,Overcast,190,2013-01-25 05:33:00
11:53 PM,8.6,1.4,73,30.18,10.0,SSW,4.6,-,N/A,,Overcast,210,2013-01-25 05:53:00